Weather History for ETHL - March, 2013

Change the Weather History Date:

Tuesday, March 12, 2013

  Actual Average (EDNY) Record (EDNY)
Temperature  
Mean Temperature 44 °F -  
Max Temperature 50 °F 50 °F 62 °F (1997)
Min Temperature 37 °F 32 °F 21 °F (2006)
Degree Days  
Heating Degree Days 22    
Moisture  
Dew Point 37 °F    
Average Humidity 88    
Maximum Humidity 100    
Minimum Humidity 62    
Precipitation  
Precipitation 0.00 in - - ()
Sea Level Pressure  
Sea Level Pressure 29.41 in    
Wind  
Wind Speed 4 mph ()    
Max Wind Speed 15 mph    
Max Gust Speed -    
Visibility 4.0 miles    
Events Fog , Rain , Thunderstorm    
Averages and records for this station are not official NWS values.
T = Trace of Precipitation, MM = Missing Value Source: Averaged Metar Reports

Daily Weather History Graph

Daily Weather History Graph

Search for Another Location

Airport or City:

Trip Planner

Search our weather history database for the weather conditions in past years. The results will help you decide how hot, cold, wet, or windy it might be!

Date:

Astronomy

Mar. 12, 2013 Rise Set
Actual Time 6:39 AM CET 6:21 PM CET
Civil Twilight 6:08 AM CET 6:52 PM CET
Nautical Twilight 5:32 AM CET 7:28 PM CET
Astronomical Twilight 4:55 AM CET 8:05 PM CET
Moon 6:31 AM CET (3/12) 7:27 PM CET (3/12)
Length of Visible Light 12h 43m
Length of Day
11h 41m
New Moon, 0% of the Moon is Illuminated
Mar 12
New Moon
Mar 19
First Quarter
Mar 27
Full
Apr 3
Last Quarter
Apr 10
New

Hourly Weather History & Observations

Time (CET) Temp. Windchill Dew Point Humidity Pressure Visibility Wind Dir Wind Speed Gust Speed Precip Events Conditions
12:20 AM 39.2 °F 35.9 °F 39.2 °F 100% 29.47 in 0.1 mi East 4.6 mph - N/A Fog Fog
1:20 AM 39.2 °F 35.9 °F 39.2 °F 100% 29.47 in 1.2 mi ENE 4.6 mph - N/A   Overcast
2:20 AM 37.4 °F 34.9 °F 37.4 °F 100% 29.47 in 1.0 mi ESE 3.5 mph - N/A   Overcast
3:20 AM 37.4 °F 33.8 °F 37.4 °F 100% 29.44 in 0.9 mi East 4.6 mph - N/A   Overcast
4:20 AM 37.4 °F 33.8 °F 37.4 °F 100% 29.44 in 0.5 mi ENE 4.6 mph - N/A Fog Fog
5:20 AM 37.4 °F 34.9 °F 37.4 °F 100% 29.42 in 0.4 mi ENE 3.5 mph - N/A Fog Fog
6:20 AM 37.4 °F 34.9 °F 37.4 °F 100% 29.42 in 0.1 mi NE 3.5 mph - N/A Fog Fog
7:20 AM 37.4 °F 33.8 °F 37.4 °F 100% 29.42 in 0.3 mi ENE 4.6 mph - N/A Fog Fog
7:34 AM 37.4 °F 34.9 °F 37.4 °F 100% 29.42 in 0.7 mi East 3.5 mph - N/A   Overcast
7:45 AM 37.4 °F 33.8 °F 37.4 °F 100% 29.42 in 1.6 mi SE 4.6 mph - N/A   Overcast
8:20 AM 37.4 °F 34.9 °F 37.4 °F 100% 29.42 in 1.2 mi East 3.5 mph - N/A   Overcast
9:20 AM 37.4 °F 33.8 °F 37.4 °F 100% 29.42 in - SSE 4.6 mph - N/A   Overcast
10:02 AM 39.2 °F 35.0 °F 39.2 °F 100% 29.42 in - SE 5.8 mph - N/A   Overcast
10:20 AM 39.2 °F 37.0 °F 37.4 °F 93% 29.42 in 3.1 mi East 3.5 mph - N/A   Overcast
11:20 AM 39.2 °F 37.0 °F 37.4 °F 93% 29.42 in 4.3 mi SW 3.5 mph - N/A   Overcast
11:57 AM 41.0 °F - 37.4 °F 87% 29.39 in 6.2 mi Variable 2.3 mph - N/A   Mostly Cloudy
12:10 PM 41.0 °F 39.0 °F 37.4 °F 87% 29.39 in 6.2 mi East 3.5 mph - N/A   Mostly Cloudy
12:20 PM 42.8 °F 41.1 °F 39.2 °F 87% 29.39 in 6.2 mi ESE 3.5 mph - N/A   Mostly Cloudy
1:20 PM 44.6 °F 43.1 °F 39.2 °F 81% 29.39 in 6.2 mi WNW 3.5 mph - N/A   Mostly Cloudy
2:20 PM 46.4 °F - 39.2 °F 76% 29.36 in 6.2 mi Variable 2.3 mph - N/A   Mostly Cloudy
3:20 PM 48.2 °F - 39.2 °F 71% 29.36 in 6.2 mi SSE 3.5 mph - N/A   Mostly Cloudy
4:20 PM 48.2 °F - 39.2 °F 71% 29.36 in 6.2 mi South 4.6 mph - N/A   Mostly Cloudy
4:50 PM 50.0 °F - 39.2 °F 66% 29.33 in 6.2 mi WSW 5.8 mph - N/A Thunderstorm Mostly Cloudy
5:00 PM 50.0 °F - 37.4 °F 62% 29.36 in 6.2 mi WSW 9.2 mph - N/A Thunderstorm Mostly Cloudy
5:20 PM 44.6 °F 37.8 °F 37.4 °F 76% 29.36 in 6.2 mi WNW 15.0 mph - N/A Rain , Thunderstorm Light Thunderstorms and Rain
6:20 PM 42.8 °F 37.0 °F 37.4 °F 81% 29.36 in 6.2 mi WNW 10.4 mph - N/A   Mostly Cloudy
7:20 PM 42.8 °F 37.0 °F 35.6 °F 76% 29.39 in 6.2 mi WNW 10.4 mph - N/A   Mostly Cloudy
8:20 PM 42.8 °F 37.5 °F 35.6 °F 76% 29.42 in 6.2 mi West 9.2 mph - N/A   Mostly Cloudy
9:20 PM 41.0 °F 35.8 °F 33.8 °F 76% 29.42 in 6.2 mi WNW 8.1 mph - N/A   Mostly Cloudy
10:20 PM 39.2 °F 33.0 °F 33.8 °F 81% 29.42 in 6.2 mi WNW 9.2 mph - N/A   Mostly Cloudy
11:20 PM 37.4 °F 32.8 °F 32.0 °F 81% 29.44 in 6.2 mi North 5.8 mph - N/A   Mostly Cloudy